Orlando International, FL

11:45 PM EDT on April 24, 2017 (GMT -0400)
Orlando International

Weather History for KMCO - April, 2014

Change the Weather History Date:

Saturday, April 19, 2014

  Actual Average Record
Temperature  
Mean Temperature 72 °F 72 °F  
Max Temperature 79 °F 83 °F 94 °F (1922)
Min Temperature 65 °F 61 °F 42 °F (1923)
Degree Days  
Heating Degree Days 0 0  
Month to date heating degree days 0 11  
Since 1 July heating degree days 406 569  
Cooling Degree Days 7 7  
Month to date cooling degree days 144 111  
Year to date cooling degree days 401 333  
Growing Degree Days 22 (Base 50)    
Moisture  
Dew Point 61 °F    
Average Humidity 71    
Maximum Humidity 93    
Minimum Humidity 48    
Precipitation  
Precipitation 0.00 in 0.08 in 2.20 in (1901)
Month to date precipitation 2.35 1.82  
Year to date precipitation 11.91 10.32  
Sea Level Pressure  
Sea Level Pressure 29.92 in    
Wind  
Wind Speed 11 mph (WSW)    
Max Wind Speed 21 mph    
Max Gust Speed 25 mph    
Visibility 10 miles    
Events      
T = Trace of Precipitation, MM = Missing Value Source: NWS Daily Summary

Daily Weather History Graph

Daily Weather History Graph

Search for Another Location

Airport or City:

Trip Planner

Search our weather history database for the weather conditions in past years. The results will help you decide how hot, cold, wet, or windy it might be!

Date:

Astronomy

Apr. 19, 2014 Rise Set
Actual Time 6:55 AM EDT 7:53 PM EDT
Civil Twilight 6:31 AM EDT 8:17 PM EDT
Nautical Twilight 6:02 AM EDT 8:46 PM EDT
Astronomical Twilight 5:33 AM EDT 9:15 PM EDT
Moon No Moon Rise 10:23 AM EDT (4/19)
Length of Visible Light 13h 46m
Length of Day
12h 57m
Waning Gibbous, 79% of the Moon is Illuminated
Apr 19
Waning Gibbous
Apr 22
Last Quarter
Apr 29
New
May 6
First Quarter
May 14
Full

Hourly Weather History & Observations

Time (EDT) Temp. Dew Point Humidity Pressure Visibility Wind Dir Wind Speed Gust Speed Precip Events Conditions
12:24 AM 68.0 °F 64.9 °F 90% 29.94 in 10.0 mi Calm Calm - N/A   Mostly Cloudy
12:53 AM 68.0 °F 66.0 °F 93% 29.94 in 10.0 mi SSE 3.5 mph - N/A   Overcast
1:53 AM 69.1 °F 66.0 °F 90% 29.93 in 10.0 mi South 5.8 mph - N/A   Overcast
2:53 AM 69.1 °F 66.0 °F 90% 29.90 in 10.0 mi South 5.8 mph - N/A   Mostly Cloudy
3:14 AM 68.0 °F 64.9 °F 90% 29.90 in 10.0 mi SW 3.5 mph - N/A   Scattered Clouds
3:53 AM 66.9 °F 64.9 °F 93% 29.89 in 10.0 mi South 3.5 mph - N/A   Scattered Clouds
4:53 AM 66.9 °F 64.9 °F 93% 29.88 in 10.0 mi SSW 5.8 mph - N/A   Scattered Clouds
5:53 AM 66.9 °F 64.9 °F 93% 29.90 in 9.0 mi South 4.6 mph - N/A   Partly Cloudy
6:53 AM 66.9 °F 64.9 °F 93% 29.91 in 10.0 mi South 5.8 mph - N/A   Scattered Clouds
7:41 AM 70.0 °F 66.9 °F 90% 29.92 in 10.0 mi SSW 8.1 mph - N/A   Mostly Cloudy
7:53 AM 70.0 °F 66.9 °F 90% 29.92 in 10.0 mi SSW 8.1 mph - N/A   Mostly Cloudy
8:53 AM 71.1 °F 66.9 °F 87% 29.92 in 10.0 mi WSW 8.1 mph - N/A   Mostly Cloudy
9:53 AM 71.1 °F 64.0 °F 78% 29.93 in 10.0 mi WSW 17.3 mph - N/A   Mostly Cloudy
10:09 AM 72.0 °F 63.0 °F 73% 29.93 in 10.0 mi WSW 17.3 mph - N/A   Scattered Clouds
10:39 AM 73.0 °F 62.1 °F 68% 29.93 in 10.0 mi WSW 15.0 mph - N/A   Mostly Cloudy
10:53 AM 73.0 °F 62.1 °F 68% 29.93 in 10.0 mi SW 16.1 mph - N/A   Mostly Cloudy
11:03 AM 73.9 °F 62.1 °F 66% 29.93 in 10.0 mi WSW 15.0 mph - N/A   Mostly Cloudy
11:53 AM 75.0 °F 62.1 °F 64% 29.93 in 10.0 mi WSW 17.3 mph - N/A   Mostly Cloudy
12:53 PM 77.0 °F 61.0 °F 58% 29.92 in 10.0 mi SW 16.1 mph 21.9 mph N/A   Partly Cloudy
1:53 PM 77.0 °F 61.0 °F 58% 29.91 in 10.0 mi SW 10.4 mph 21.9 mph N/A   Mostly Cloudy
2:53 PM 78.1 °F 57.9 °F 50% 29.89 in 10.0 mi West 11.5 mph 21.9 mph N/A   Mostly Cloudy
3:53 PM 78.1 °F 59.0 °F 52% 29.88 in 10.0 mi West 12.7 mph - N/A   Mostly Cloudy
4:53 PM 73.0 °F 57.9 °F 59% 29.89 in 10.0 mi WNW 18.4 mph 25.3 mph N/A   Mostly Cloudy
5:53 PM 72.0 °F 57.0 °F 59% 29.91 in 10.0 mi West 18.4 mph - N/A   Mostly Cloudy
6:53 PM 70.0 °F 55.9 °F 61% 29.92 in 10.0 mi West 15.0 mph - N/A   Mostly Cloudy
7:53 PM 68.0 °F 55.9 °F 65% 29.94 in 10.0 mi WNW 12.7 mph - N/A   Mostly Cloudy
8:53 PM 66.9 °F 55.9 °F 68% 29.95 in 10.0 mi West 12.7 mph - N/A   Overcast
9:53 PM 66.0 °F 54.0 °F 65% 29.96 in 10.0 mi WNW 11.5 mph - N/A   Overcast
10:22 PM 66.0 °F 54.0 °F 65% 29.97 in 10.0 mi WNW 8.1 mph - N/A   Overcast
10:53 PM 64.9 °F 54.0 °F 68% 29.98 in 10.0 mi WNW 11.5 mph - N/A   Overcast
11:53 PM 64.9 °F 55.0 °F 70% 29.99 in 10.0 mi WNW 10.4 mph - N/A   Overcast